Time,TemperatureF,DewpointF,PressureIn,WindDirection,WindDirectionDegrees,WindSpeedMPH,WindSpeedGustMPH,Humidity,HourlyPrecipIn,Conditions,Clouds,dailyrainin,SoftwareType,DateUTC
2013-02-28 00:00:00,32.5,27.9,29.82,West,270,11.5,11.5,83,0.00,-SN,,0.04,WeatherDisplay:10.37,2013-02-28 05:00:00,
2013-02-28 00:01:00,32.5,27.9,29.82,WSW,249,11.0,11.0,83,0.00,-SN,,0.00,WeatherDisplay:10.37,2013-02-28 05:01:00,
2013-02-28 00:06:00,32.5,27.9,29.82,WNW,282,6.0,6.0,83,0.00,RA,,0.00,WeatherDisplay:10.37,2013-02-28 05:06:00,
2013-02-28 00:11:00,32.4,27.8,29.82,NNW,329,10.4,10.4,83,0.00,BKN,,0.00,WeatherDisplay:10.37,2013-02-28 05:11:00,
2013-02-28 00:16:00,32.3,27.7,29.82,West,268,5.8,5.8,83,0.00,BKN,,0.00,WeatherDisplay:10.37,2013-02-28 05:16:00,
2013-02-28 00:21:00,32.2,27.6,29.82,WSW,255,6.0,6.0,83,0.00,BKN,,0.00,WeatherDisplay:10.37,2013-02-28 05:21:00,
2013-02-28 00:26:00,32.2,27.9,29.82,WSW,251,11.0,11.0,84,0.00,BKN,,0.00,WeatherDisplay:10.37,2013-02-28 05:26:00,
2013-02-28 00:31:00,32.1,27.8,29.82,WSW,249,13.0,13.0,84,0.00,BKN,,0.00,WeatherDisplay:10.37,2013-02-28 05:31:00,
2013-02-28 00:36:00,32.1,27.8,29.82,WSW,245,7.0,7.0,84,0.00,BKN,,0.00,WeatherDisplay:10.37,2013-02-28 05:36:00,
2013-02-28 00:41:00,32.1,27.8,29.82,West,259,6.9,6.9,84,0.00,BKN,,0.00,WeatherDisplay:10.37,2013-02-28 05:41:00,
2013-02-28 00:46:00,32.1,27.8,29.82,WSW,256,6.9,6.9,84,0.00,BKN,,0.00,WeatherDisplay:10.37,2013-02-28 05:46:00,
2013-02-28 00:51:00,32.1,27.8,29.82,WSW,245,10.4,10.4,84,0.00,BKN,,0.00,WeatherDisplay:10.37,2013-02-28 05:51:00,
2013-02-28 00:56:00,32.1,27.8,29.82,WNW,289,3.5,3.5,84,0.00,BKN,,0.00,WeatherDisplay:10.37,2013-02-28 05:56:00,
2013-02-28 01:01:00,32.1,27.8,29.82,WNW,283,6.0,6.0,84,0.00,OVC,,0.00,WeatherDisplay:10.37,2013-02-28 06:01:00,
2013-02-28 01:06:00,32.1,27.8,29.82,West,268,7.0,7.0,84,0.00,OVC,,0.00,WeatherDisplay:10.37,2013-02-28 06:06:00,
2013-02-28 01:11:00,32.1,27.8,29.82,NW,312,9.2,9.2,84,0.00,OVC,,0.00,WeatherDisplay:10.37,2013-02-28 06:11:00,
2013-02-28 01:16:00,32.1,27.5,29.82,SW,232,6.0,6.0,83,0.00,OVC,,0.00,WeatherDisplay:10.37,2013-02-28 06:16:00,
2013-02-28 01:21:00,32.1,27.5,29.83,West,259,11.0,11.0,83,0.00,OVC,,0.00,WeatherDisplay:10.37,2013-02-28 06:21:00,
2013-02-28 01:26:00,32.1,27.5,29.82,West,259,12.0,12.0,83,0.00,OVC,,0.00,WeatherDisplay:10.37,2013-02-28 06:26:00,
2013-02-28 01:31:00,32.1,27.5,29.83,West,264,14.0,14.0,83,0.00,OVC,,0.00,WeatherDisplay:10.37,2013-02-28 06:31:00,
2013-02-28 01:36:00,32.1,27.2,29.83,West,261,2.3,2.3,82,0.00,OVC,,0.00,WeatherDisplay:10.37,2013-02-28 06:36:00,
2013-02-28 01:41:00,32.0,27.1,29.82,WSW,244,6.0,6.0,82,0.00,OVC,,0.00,WeatherDisplay:10.37,2013-02-28 06:41:00,
2013-02-28 01:47:00,31.9,27.0,29.82,WSW,257,8.0,8.0,82,0.00,OVC,,0.00,WeatherDisplay:10.37,2013-02-28 06:47:00,
2013-02-28 01:52:00,31.8,26.9,29.82,WSW,253,9.0,9.0,82,0.00,OVC,,0.00,WeatherDisplay:10.37,2013-02-28 06:52:00,
2013-02-28 01:57:00,31.8,26.9,29.82,WSW,251,6.0,6.0,82,0.00,OVC,,0.00,WeatherDisplay:10.37,2013-02-28 06:57:00,
2013-02-28 02:02:00,31.7,26.8,29.82,WSW,252,7.0,7.0,82,0.00,OVC,,0.00,WeatherDisplay:10.37,2013-02-28 07:02:00,
2013-02-28 02:07:00,31.6,26.7,29.82,West,270,7.0,7.0,82,0.00,OVC,,0.00,WeatherDisplay:10.37,2013-02-28 07:07:00,
2013-02-28 02:12:00,31.5,26.6,29.82,West,272,5.8,5.8,82,0.00,OVC,,0.00,WeatherDisplay:10.37,2013-02-28 07:12:00,
2013-02-28 02:17:00,31.5,26.6,29.82,West,264,3.5,3.5,82,0.00,OVC,,0.00,WeatherDisplay:10.37,2013-02-28 07:17:00,
2013-02-28 02:22:00,31.4,26.5,29.82,WSW,244,8.0,8.0,82,0.00,OVC,,0.00,WeatherDisplay:10.37,2013-02-28 07:22:00,
2013-02-28 02:27:00,31.3,26.7,29.82,West,261,5.8,5.8,83,0.00,OVC,,0.00,WeatherDisplay:10.37,2013-02-28 07:27:00,
2013-02-28 02:32:00,31.3,26.7,29.82,WSW,252,5.0,5.0,83,0.00,OVC,,0.00,WeatherDisplay:10.37,2013-02-28 07:32:00,
2013-02-28 02:37:00,31.2,26.6,29.82,WNW,287,7.0,7.0,83,0.00,OVC,,0.00,WeatherDisplay:10.37,2013-02-28 07:37:00,
2013-02-28 02:42:00,31.3,26.7,29.82,West,272,9.2,9.2,83,0.00,OVC,,0.00,WeatherDisplay:10.37,2013-02-28 07:42:00,
2013-02-28 02:47:00,31.3,26.7,29.82,West,277,5.0,5.0,83,0.00,OVC,,0.00,WeatherDisplay:10.37,2013-02-28 07:47:00,
2013-02-28 02:52:00,31.3,26.7,29.82,WSW,241,8.0,8.0,83,0.00,OVC,,0.00,WeatherDisplay:10.37,2013-02-28 07:52:00,
2013-02-28 02:57:00,31.3,26.7,29.82,West,280,6.9,6.9,83,0.00,OVC,,0.00,WeatherDisplay:10.37,2013-02-28 07:57:00,
2013-02-28 03:02:00,31.3,26.7,29.82,West,267,10.4,10.4,83,0.00,OVC,,0.00,WeatherDisplay:10.37,2013-02-28 08:02:00,
2013-02-28 03:07:00,31.3,26.7,29.82,WSW,245,6.0,6.0,83,0.00,OVC,,0.00,WeatherDisplay:10.37,2013-02-28 08:07:00,
2013-02-28 03:12:00,31.3,26.7,29.82,West,266,9.2,9.2,83,0.00,OVC,,0.00,WeatherDisplay:10.37,2013-02-28 08:12:00,
2013-02-28 03:17:00,31.3,26.7,29.82,WSW,247,7.0,7.0,83,0.00,OVC,,0.00,WeatherDisplay:10.37,2013-02-28 08:17:00,
2013-02-28 03:22:00,31.2,26.6,29.82,WSW,252,9.2,9.2,83,0.00,OVC,,0.00,WeatherDisplay:10.37,2013-02-28 08:22:00,
2013-02-28 03:27:00,31.2,26.6,29.82,WSW,240,9.2,9.2,83,0.00,OVC,,0.00,WeatherDisplay:10.37,2013-02-28 08:27:00,
2013-02-28 03:32:00,31.2,26.9,29.82,West,264,11.5,11.5,84,0.00,OVC,,0.00,WeatherDisplay:10.37,2013-02-28 08:32:00,
2013-02-28 03:37:00,31.2,26.9,29.82,WSW,244,5.0,5.0,84,0.00,OVC,,0.00,WeatherDisplay:10.37,2013-02-28 08:37:00,
2013-02-28 03:42:00,31.2,26.9,29.82,West,270,6.0,6.0,84,0.00,OVC,,0.00,WeatherDisplay:10.37,2013-02-28 08:42:00,
2013-02-28 03:47:00,31.2,26.9,29.82,WSW,255,6.0,6.0,84,0.00,OVC,,0.00,WeatherDisplay:10.37,2013-02-28 08:47:00,
2013-02-28 03:52:00,31.2,26.9,29.82,WNW,295,6.0,6.0,84,0.00,OVC,,0.00,WeatherDisplay:10.37,2013-02-28 08:52:00,
2013-02-28 03:57:00,31.2,26.9,29.82,West,271,4.0,4.0,84,0.00,OVC,,0.00,WeatherDisplay:10.37,2013-02-28 08:57:00,
2013-02-28 04:02:00,31.2,26.9,29.82,West,274,11.5,11.5,84,0.00,OVC,,0.00,WeatherDisplay:10.37,2013-02-28 09:02:00,
2013-02-28 04:07:00,31.2,26.9,29.82,NW,308,4.0,4.0,84,0.00,OVC,,0.00,WeatherDisplay:10.37,2013-02-28 09:07:00,
2013-02-28 04:12:00,31.2,26.9,29.82,WSW,249,7.0,7.0,84,0.00,OVC,,0.00,WeatherDisplay:10.37,2013-02-28 09:12:00,
2013-02-28 04:17:00,31.2,26.6,29.82,WSW,256,6.0,6.0,83,0.00,OVC,,0.00,WeatherDisplay:10.37,2013-02-28 09:17:00,
2013-02-28 04:22:00,31.2,26.9,29.82,WSW,253,8.1,8.1,84,0.00,OVC,,0.00,WeatherDisplay:10.37,2013-02-28 09:22:00,
2013-02-28 04:27:00,31.2,26.9,29.82,West,274,4.0,4.0,84,0.00,OVC,,0.00,WeatherDisplay:10.37,2013-02-28 09:27:00,
2013-02-28 04:32:00,31.2,26.9,29.82,West,275,6.0,6.0,84,0.00,OVC,,0.00,WeatherDisplay:10.37,2013-02-28 09:32:00,
2013-02-28 04:37:00,31.3,27.0,29.82,West,277,7.0,7.0,84,0.00,OVC,,0.00,WeatherDisplay:10.37,2013-02-28 09:37:00,
2013-02-28 04:42:00,31.3,26.7,29.82,WSW,251,4.0,4.0,83,0.00,OVC,,0.00,WeatherDisplay:10.37,2013-02-28 09:42:00,
2013-02-28 04:47:00,31.3,26.7,29.82,West,261,10.4,10.4,83,0.00,OVC,,0.00,WeatherDisplay:10.37,2013-02-28 09:47:00,
2013-02-28 04:52:00,31.3,26.7,29.82,WSW,245,5.8,5.8,83,0.00,OVC,,0.00,WeatherDisplay:10.37,2013-02-28 09:52:00,
2013-02-28 04:57:00,31.3,26.7,29.83,WSW,253,5.0,5.0,83,0.00,OVC,,0.00,WeatherDisplay:10.37,2013-02-28 09:57:00,
2013-02-28 05:02:00,31.4,26.8,29.83,WSW,246,10.4,10.4,83,0.00,OVC,,0.00,WeatherDisplay:10.37,2013-02-28 10:02:00,
2013-02-28 05:07:00,31.4,26.8,29.83,WNW,286,5.0,5.0,83,0.00,OVC,,0.00,WeatherDisplay:10.37,2013-02-28 10:07:00,
2013-02-28 05:12:00,31.4,26.8,29.83,WSW,254,8.0,8.0,83,0.00,OVC,,0.00,WeatherDisplay:10.37,2013-02-28 10:12:00,
2013-02-28 05:17:00,31.4,26.8,29.83,West,267,5.0,5.0,83,0.00,OVC,,0.00,WeatherDisplay:10.37,2013-02-28 10:17:00,
2013-02-28 05:22:00,31.4,26.8,29.83,WSW,249,9.2,9.2,83,0.00,OVC,,0.00,WeatherDisplay:10.37,2013-02-28 10:22:00,
2013-02-28 05:27:00,31.4,26.8,29.83,WSW,237,4.0,4.0,83,0.00,OVC,,0.00,WeatherDisplay:10.37,2013-02-28 10:27:00,
2013-02-28 05:32:00,31.4,26.8,29.83,SW,229,5.0,5.0,83,0.00,OVC,,0.00,WeatherDisplay:10.37,2013-02-28 10:32:00,
2013-02-28 05:37:00,31.4,26.8,29.83,West,266,10.4,10.4,83,0.00,OVC,,0.00,WeatherDisplay:10.37,2013-02-28 10:37:00,
2013-02-28 05:42:00,31.4,26.8,29.83,WSW,251,7.0,7.0,83,0.00,OVC,,0.00,WeatherDisplay:10.37,2013-02-28 10:42:00,
2013-02-28 05:47:00,31.5,26.9,29.83,WNW,301,12.0,12.0,83,0.00,OVC,,0.00,WeatherDisplay:10.37,2013-02-28 10:47:00,
2013-02-28 05:52:00,31.4,26.8,29.84,WSW,252,3.5,3.5,83,0.00,OVC,,0.00,WeatherDisplay:10.37,2013-02-28 10:52:00,
2013-02-28 05:57:00,31.5,26.9,29.84,West,267,11.0,11.0,83,0.00,OVC,,0.00,WeatherDisplay:10.37,2013-02-28 10:57:00,
2013-02-28 06:02:00,31.5,26.6,29.84,West,263,9.0,9.0,82,0.00,OVC,,0.00,WeatherDisplay:10.37,2013-02-28 11:02:00,
2013-02-28 06:07:00,31.5,26.6,29.84,WSW,241,9.0,9.0,82,0.00,OVC,,0.00,WeatherDisplay:10.37,2013-02-28 11:07:00,
2013-02-28 06:12:00,31.5,26.6,29.84,WSW,253,9.2,9.2,82,0.00,OVC,,0.00,WeatherDisplay:10.37,2013-02-28 11:12:00,
2013-02-28 06:17:00,31.4,26.5,29.84,West,259,9.0,9.0,82,0.00,OVC,,0.00,WeatherDisplay:10.37,2013-02-28 11:17:00,
2013-02-28 06:22:00,31.4,26.5,29.84,West,261,8.0,8.0,82,0.00,OVC,,0.00,WeatherDisplay:10.37,2013-02-28 11:22:00,
2013-02-28 06:27:00,31.4,26.8,29.84,WSW,255,8.1,8.1,83,0.00,OVC,,0.00,WeatherDisplay:10.37,2013-02-28 11:27:00,
2013-02-28 06:32:00,31.4,26.5,29.84,West,259,7.0,7.0,82,0.00,OVC,,0.00,WeatherDisplay:10.37,2013-02-28 11:32:00,
2013-02-28 06:37:00,31.4,26.5,29.84,WSW,248,9.2,9.2,82,0.00,OVC,,0.00,WeatherDisplay:10.37,2013-02-28 11:37:00,
2013-02-28 06:42:00,31.4,26.5,29.84,WSW,256,6.0,6.0,82,0.00,OVC,,0.00,WeatherDisplay:10.37,2013-02-28 11:42:00,
2013-02-28 06:47:00,31.4,26.5,29.84,WNW,294,5.0,5.0,82,0.00,OVC,,0.00,WeatherDisplay:10.37,2013-02-28 11:47:00,
2013-02-28 06:52:00,31.4,26.5,29.85,WSW,253,7.0,7.0,82,0.00,OVC,,0.00,WeatherDisplay:10.37,2013-02-28 11:52:00,
2013-02-28 06:57:00,31.3,26.4,29.85,WSW,247,8.1,8.1,82,0.00,OVC,,0.00,WeatherDisplay:10.37,2013-02-28 11:57:00,
2013-02-28 07:02:00,31.3,26.4,29.85,West,275,10.0,10.0,82,0.00,OVC,,0.00,WeatherDisplay:10.37,2013-02-28 12:02:00,
2013-02-28 07:07:00,31.3,26.4,29.85,NNW,341,4.0,4.0,82,0.00,OVC,,0.00,WeatherDisplay:10.37,2013-02-28 12:07:00,
2013-02-28 07:13:00,31.3,26.4,29.85,NW,309,6.9,6.9,82,0.00,OVC,,0.00,WeatherDisplay:10.37,2013-02-28 12:13:00,
2013-02-28 07:18:00,31.2,26.3,29.85,WNW,296,8.0,8.0,82,0.00,OVC,,0.00,WeatherDisplay:10.37,2013-02-28 12:18:00,
2013-02-28 07:23:00,31.2,26.0,29.85,West,268,5.0,5.0,81,0.00,OVC,,0.00,WeatherDisplay:10.37,2013-02-28 12:23:00,
2013-02-28 07:28:00,31.2,26.0,29.85,WSW,251,7.0,7.0,81,0.00,OVC,,0.00,WeatherDisplay:10.37,2013-02-28 12:28:00,
2013-02-28 07:33:00,31.2,26.0,29.85,WSW,255,12.0,12.0,81,0.00,OVC,,0.00,WeatherDisplay:10.37,2013-02-28 12:33:00,
2013-02-28 07:38:00,31.2,26.0,29.86,West,272,6.0,6.0,81,0.00,OVC,,0.00,WeatherDisplay:10.37,2013-02-28 12:38:00,
2013-02-28 07:43:00,31.2,26.0,29.86,WNW,288,7.0,7.0,81,0.00,OVC,,0.00,WeatherDisplay:10.37,2013-02-28 12:43:00,
2013-02-28 07:48:00,31.2,26.0,29.86,WSW,247,8.1,8.1,81,0.00,OVC,,0.00,WeatherDisplay:10.37,2013-02-28 12:48:00,
2013-02-28 07:53:00,31.2,26.0,29.86,WSW,257,11.5,11.5,81,0.00,OVC,,0.00,WeatherDisplay:10.37,2013-02-28 12:53:00,
2013-02-28 07:58:00,31.3,26.1,29.86,NNW,345,7.0,7.0,81,0.00,OVC,,0.00,WeatherDisplay:10.37,2013-02-28 12:58:00,
2013-02-28 08:03:00,31.2,26.0,29.86,WSW,255,10.4,10.4,81,0.00,OVC,,0.00,WeatherDisplay:10.37,2013-02-28 13:03:00,
2013-02-28 08:08:00,31.2,26.0,29.87,WSW,251,12.0,12.0,81,0.00,OVC,,0.00,WeatherDisplay:10.37,2013-02-28 13:08:00,
2013-02-28 08:13:00,31.2,26.0,29.87,NW,307,11.5,11.5,81,0.00,OVC,,0.00,WeatherDisplay:10.37,2013-02-28 13:13:00,
2013-02-28 08:18:00,31.2,26.0,29.87,WSW,253,11.5,11.5,81,0.00,OVC,,0.00,WeatherDisplay:10.37,2013-02-28 13:18:00,
2013-02-28 08:23:00,31.2,26.0,29.87,West,260,8.1,8.1,81,0.00,OVC,,0.00,WeatherDisplay:10.37,2013-02-28 13:23:00,
2013-02-28 08:28:00,31.3,26.4,29.87,WNW,293,10.4,10.4,82,0.00,OVC,,0.00,WeatherDisplay:10.37,2013-02-28 13:28:00,
2013-02-28 08:33:00,31.2,26.3,29.87,NNW,330,9.2,9.2,82,0.00,OVC,,0.00,WeatherDisplay:10.37,2013-02-28 13:33:00,
2013-02-28 08:38:00,31.3,26.4,29.88,West,278,5.0,5.0,82,0.00,OVC,,0.00,WeatherDisplay:10.37,2013-02-28 13:38:00,
2013-02-28 08:43:00,31.3,26.4,29.88,WNW,282,5.8,5.8,82,0.00,OVC,,0.00,WeatherDisplay:10.37,2013-02-28 13:43:00,
2013-02-28 08:48:00,31.3,26.4,29.88,WNW,300,11.5,11.5,82,0.00,OVC,,0.00,WeatherDisplay:10.37,2013-02-28 13:48:00,
2013-02-28 08:53:00,31.3,26.4,29.88,NW,306,6.0,6.0,82,0.00,OVC,,0.00,WeatherDisplay:10.37,2013-02-28 13:53:00,
2013-02-28 08:58:00,31.3,26.4,29.88,West,264,13.8,13.8,82,0.00,OVC,,0.00,WeatherDisplay:10.37,2013-02-28 13:58:00,
2013-02-28 09:03:00,31.3,26.4,29.88,West,266,9.2,9.2,82,0.00,OVC,,0.00,WeatherDisplay:10.37,2013-02-28 14:03:00,
2013-02-28 09:08:00,31.4,26.5,29.88,West,268,6.0,6.0,82,0.00,OVC,,0.00,WeatherDisplay:10.37,2013-02-28 14:08:00,
2013-02-28 09:13:00,31.4,26.5,29.89,NW,305,4.0,4.0,82,0.00,OVC,,0.00,WeatherDisplay:10.37,2013-02-28 14:13:00,
2013-02-28 09:18:00,31.4,26.5,29.89,WNW,299,9.2,9.2,82,0.00,OVC,,0.00,WeatherDisplay:10.37,2013-02-28 14:18:00,
2013-02-28 09:23:00,31.4,26.5,29.89,WSW,253,10.4,10.4,82,0.00,OVC,,0.00,WeatherDisplay:10.37,2013-02-28 14:23:00,
2013-02-28 09:28:00,31.4,26.8,29.89,WNW,291,7.0,7.0,83,0.00,OVC,,0.00,WeatherDisplay:10.37,2013-02-28 14:28:00,
2013-02-28 09:33:00,31.4,26.8,29.89,West,276,11.5,11.5,83,0.00,OVC,,0.00,WeatherDisplay:10.37,2013-02-28 14:33:00,
2013-02-28 09:38:00,31.4,26.8,29.89,WSW,249,10.4,10.4,83,0.00,OVC,,0.00,WeatherDisplay:10.37,2013-02-28 14:38:00,
2013-02-28 09:43:00,31.4,26.8,29.89,NW,307,11.5,11.5,83,0.00,OVC,,0.00,WeatherDisplay:10.37,2013-02-28 14:43:00,
2013-02-28 09:48:00,31.5,26.9,29.89,WNW,285,10.4,10.4,83,0.00,OVC,,0.00,WeatherDisplay:10.37,2013-02-28 14:48:00,
2013-02-28 09:53:00,31.5,26.9,29.89,NW,320,7.0,7.0,83,0.00,OVC,,0.00,WeatherDisplay:10.37,2013-02-28 14:53:00,
2013-02-28 09:58:00,31.5,26.9,29.89,West,266,9.0,9.0,83,0.00,OVC,,0.00,WeatherDisplay:10.37,2013-02-28 14:58:00,
2013-02-28 10:03:00,31.6,27.0,29.90,NW,317,6.0,6.0,83,0.00,OVC,,0.00,WeatherDisplay:10.37,2013-02-28 15:03:00,
2013-02-28 10:08:00,31.6,27.0,29.90,SW,234,8.0,8.0,83,0.00,OVC,,0.00,WeatherDisplay:10.37,2013-02-28 15:08:00,
2013-02-28 10:13:00,31.6,27.0,29.90,NNW,347,7.0,7.0,83,0.00,OVC,,0.00,WeatherDisplay:10.37,2013-02-28 15:13:00,
2013-02-28 10:18:00,31.6,27.0,29.90,North,2,10.4,10.4,83,0.00,OVC,,0.00,WeatherDisplay:10.37,2013-02-28 15:18:00,
2013-02-28 10:23:00,31.6,27.0,29.90,West,268,8.1,8.1,83,0.00,OVC,,0.00,WeatherDisplay:10.37,2013-02-28 15:23:00,
2013-02-28 10:28:00,31.7,27.1,29.90,West,268,7.0,7.0,83,0.00,OVC,,0.00,WeatherDisplay:10.37,2013-02-28 15:28:00,
2013-02-28 10:33:00,31.7,27.1,29.91,WSW,245,5.0,5.0,83,0.00,OVC,,0.00,WeatherDisplay:10.37,2013-02-28 15:33:00,
2013-02-28 10:38:00,31.8,27.2,29.91,WNW,288,4.0,4.0,83,0.00,OVC,,0.00,WeatherDisplay:10.37,2013-02-28 15:38:00,
2013-02-28 10:43:00,31.8,27.2,29.91,WSW,247,10.4,10.4,83,0.00,OVC,,0.00,WeatherDisplay:10.37,2013-02-28 15:43:00,
2013-02-28 10:48:00,31.8,27.2,29.91,NNW,328,4.0,4.0,83,0.00,OVC,,0.00,WeatherDisplay:10.37,2013-02-28 15:48:00,
2013-02-28 10:53:00,31.8,27.2,29.91,North,354,7.0,7.0,83,0.00,OVC,,0.00,WeatherDisplay:10.37,2013-02-28 15:53:00,
2013-02-28 10:58:00,31.8,27.2,29.91,North,355,16.1,16.1,83,0.00,OVC,,0.00,WeatherDisplay:10.37,2013-02-28 15:58:00,
2013-02-28 11:03:00,31.8,27.2,29.92,WSW,257,9.0,9.0,83,0.00,OVC,,0.00,WeatherDisplay:10.37,2013-02-28 16:03:00,
2013-02-28 11:08:00,31.9,27.6,29.91,WSW,252,5.0,5.0,84,0.00,OVC,,0.00,WeatherDisplay:10.37,2013-02-28 16:08:00,
2013-02-28 11:13:00,31.9,27.6,29.92,WSW,252,8.1,8.1,84,0.00,OVC,,0.00,WeatherDisplay:10.37,2013-02-28 16:13:00,
2013-02-28 11:18:00,31.9,27.6,29.92,WSW,251,8.1,8.1,84,0.00,OVC,,0.00,WeatherDisplay:10.37,2013-02-28 16:18:00,
2013-02-28 11:23:00,32.0,27.7,29.92,WSW,257,10.4,10.4,84,0.00,OVC,,0.00,WeatherDisplay:10.37,2013-02-28 16:23:00,
2013-02-28 11:28:00,32.0,27.7,29.92,NW,304,6.0,6.0,84,0.00,OVC,,0.00,WeatherDisplay:10.37,2013-02-28 16:28:00,
2013-02-28 11:33:00,32.1,27.8,29.92,NW,320,7.0,7.0,84,0.00,OVC,,0.00,WeatherDisplay:10.37,2013-02-28 16:33:00,
2013-02-28 11:38:00,32.1,27.5,29.92,West,263,9.2,9.2,83,0.00,OVC,,0.00,WeatherDisplay:10.37,2013-02-28 16:38:00,
2013-02-28 11:43:00,32.2,27.6,29.93,NNW,345,6.0,6.0,83,0.00,OVC,,0.00,WeatherDisplay:10.37,2013-02-28 16:43:00,
2013-02-28 11:48:00,32.3,27.7,29.93,NW,311,7.0,7.0,83,0.00,OVC,,0.00,WeatherDisplay:10.37,2013-02-28 16:48:00,
2013-02-28 11:53:00,32.2,27.6,29.93,WNW,296,8.1,8.1,83,0.00,OVC,,0.00,WeatherDisplay:10.37,2013-02-28 16:53:00,
2013-02-28 11:58:00,32.3,28.0,29.93,WNW,282,10.0,10.0,84,0.00,OVC,,0.00,WeatherDisplay:10.37,2013-02-28 16:58:00,
2013-02-28 12:03:00,32.3,28.0,29.93,West,271,9.2,9.2,84,0.00,OVC,,0.00,WeatherDisplay:10.37,2013-02-28 17:03:00,
2013-02-28 12:08:00,32.4,27.8,29.92,NW,324,7.0,7.0,83,0.00,OVC,,0.00,WeatherDisplay:10.37,2013-02-28 17:08:00,
2013-02-28 12:13:00,32.5,27.9,29.93,WNW,302,3.5,3.5,83,0.00,OVC,,0.00,WeatherDisplay:10.37,2013-02-28 17:13:00,
2013-02-28 12:18:00,32.6,28.3,29.93,WSW,249,12.7,12.7,84,0.00,OVC,,0.00,WeatherDisplay:10.37,2013-02-28 17:18:00,
2013-02-28 12:23:00,32.6,28.0,29.93,WNW,282,11.5,11.5,83,0.00,OVC,,0.00,WeatherDisplay:10.37,2013-02-28 17:23:00,
2013-02-28 12:28:00,32.6,28.0,29.92,North,2,8.1,8.1,83,0.00,OVC,,0.00,WeatherDisplay:10.37,2013-02-28 17:28:00,
2013-02-28 12:33:00,32.7,28.1,29.92,West,264,4.6,4.6,83,0.00,OVC,,0.00,WeatherDisplay:10.37,2013-02-28 17:33:00,
2013-02-28 12:38:00,32.8,28.2,29.93,West,270,6.9,6.9,83,0.00,OVC,,0.00,WeatherDisplay:10.37,2013-02-28 17:38:00,
2013-02-28 12:43:00,32.8,28.2,29.93,WNW,282,8.0,8.0,83,0.00,OVC,,0.00,WeatherDisplay:10.37,2013-02-28 17:43:00,
2013-02-28 12:48:00,32.9,28.3,29.92,NNW,348,9.0,9.0,83,0.00,OVC,,0.00,WeatherDisplay:10.37,2013-02-28 17:48:00,
2013-02-28 12:53:00,33.0,28.4,29.92,West,280,11.5,11.5,83,0.00,OVC,,0.00,WeatherDisplay:10.37,2013-02-28 17:53:00,
2013-02-28 12:58:00,33.0,28.4,29.92,West,278,7.0,7.0,83,0.00,OVC,,0.00,WeatherDisplay:10.37,2013-02-28 17:58:00,
2013-02-28 13:03:00,33.0,28.4,29.92,NW,319,11.5,11.5,83,0.00,OVC,,0.00,WeatherDisplay:10.37,2013-02-28 18:03:00,
2013-02-28 13:08:00,33.1,28.5,29.92,NW,320,4.0,4.0,83,0.00,OVC,,0.00,WeatherDisplay:10.37,2013-02-28 18:08:00,
2013-02-28 13:13:00,33.1,28.5,29.92,WSW,253,8.0,8.0,83,0.00,OVC,,0.00,WeatherDisplay:10.37,2013-02-28 18:13:00,
2013-02-28 13:18:00,33.2,28.6,29.92,WNW,293,8.1,8.1,83,0.00,OVC,,0.00,WeatherDisplay:10.37,2013-02-28 18:18:00,
2013-02-28 13:23:00,33.1,28.5,29.92,WSW,253,6.0,6.0,83,0.00,OVC,,0.00,WeatherDisplay:10.37,2013-02-28 18:23:00,
2013-02-28 13:28:00,33.1,28.5,29.92,WSW,248,4.0,4.0,83,0.00,OVC,,0.00,WeatherDisplay:10.37,2013-02-28 18:28:00,
2013-02-28 13:33:00,33.2,28.6,29.92,WSW,255,8.1,8.1,83,0.00,OVC,,0.00,WeatherDisplay:10.37,2013-02-28 18:33:00,
2013-02-28 13:38:00,33.3,28.7,29.92,WNW,292,7.0,7.0,83,0.00,OVC,,0.00,WeatherDisplay:10.37,2013-02-28 18:38:00,
2013-02-28 13:43:00,33.3,28.7,29.92,West,260,8.1,8.1,83,0.00,OVC,,0.00,WeatherDisplay:10.37,2013-02-28 18:43:00,
2013-02-28 13:48:00,33.4,28.8,29.92,WSW,248,8.0,8.0,83,0.00,OVC,,0.00,WeatherDisplay:10.37,2013-02-28 18:48:00,
2013-02-28 13:53:00,33.4,28.8,29.92,West,263,17.3,17.3,83,0.00,OVC,,0.00,WeatherDisplay:10.37,2013-02-28 18:53:00,
2013-02-28 13:58:00,33.4,28.8,29.92,WNW,300,9.0,9.0,83,0.00,OVC,,0.00,WeatherDisplay:10.37,2013-02-28 18:58:00,
2013-02-28 14:03:00,33.4,28.8,29.92,WNW,295,8.0,8.0,83,0.00,OVC,,0.00,WeatherDisplay:10.37,2013-02-28 19:03:00,
2013-02-28 14:08:00,33.4,28.8,29.92,WSW,257,10.0,10.0,83,0.00,OVC,,0.00,WeatherDisplay:10.37,2013-02-28 19:08:00,
2013-02-28 14:13:00,33.4,28.8,29.92,NW,323,6.9,6.9,83,0.00,OVC,,0.00,WeatherDisplay:10.37,2013-02-28 19:13:00,
2013-02-28 14:18:00,33.5,28.9,29.92,WSW,241,7.0,7.0,83,0.00,OVC,,0.00,WeatherDisplay:10.37,2013-02-28 19:18:00,
2013-02-28 14:23:00,33.5,28.9,29.92,NW,321,8.0,8.0,83,0.00,OVC,,0.00,WeatherDisplay:10.37,2013-02-28 19:23:00,
2013-02-28 14:28:00,33.5,28.9,29.92,WNW,295,9.2,9.2,83,0.01,RA,,0.01,WeatherDisplay:10.37,2013-02-28 19:28:00,
2013-02-28 14:33:00,33.6,29.0,29.92,West,261,4.6,4.6,83,0.01,RA,,0.01,WeatherDisplay:10.37,2013-02-28 19:33:00,
2013-02-28 14:38:00,33.6,29.0,29.92,WSW,245,9.0,9.0,83,0.01,OVC,,0.01,WeatherDisplay:10.37,2013-02-28 19:38:00,
2013-02-28 14:43:00,33.6,29.0,29.93,WNW,286,9.0,9.0,83,0.01,OVC,,0.01,WeatherDisplay:10.37,2013-02-28 19:43:00,
2013-02-28 14:48:00,33.7,29.1,29.93,NNW,343,8.1,8.1,83,0.01,OVC,,0.01,WeatherDisplay:10.37,2013-02-28 19:48:00,
2013-02-28 14:53:00,33.7,29.1,29.93,NW,317,7.0,7.0,83,0.01,OVC,,0.01,WeatherDisplay:10.37,2013-02-28 19:53:00,
2013-02-28 14:58:00,33.7,29.1,29.93,SW,216,13.0,13.0,83,0.01,OVC,,0.01,WeatherDisplay:10.37,2013-02-28 19:58:00,
2013-02-28 15:03:00,33.7,29.1,29.93,West,272,11.5,11.5,83,0.01,OVC,,0.01,WeatherDisplay:10.37,2013-02-28 20:03:00,
2013-02-28 15:08:00,33.8,29.2,29.93,NW,323,6.0,6.0,83,0.01,OVC,,0.01,WeatherDisplay:10.37,2013-02-28 20:08:00,
2013-02-28 15:13:00,33.9,29.3,29.93,NW,318,8.1,8.1,83,0.01,OVC,,0.01,WeatherDisplay:10.37,2013-02-28 20:13:00,
2013-02-28 15:18:00,33.9,29.3,29.94,NW,320,6.9,6.9,83,0.01,OVC,,0.01,WeatherDisplay:10.37,2013-02-28 20:18:00,
2013-02-28 15:23:00,33.9,29.3,29.94,NW,326,9.2,9.2,83,0.01,OVC,,0.01,WeatherDisplay:10.37,2013-02-28 20:23:00,
2013-02-28 15:28:00,33.9,29.3,29.94,WSW,246,9.2,9.2,83,0.00,OVC,,0.01,WeatherDisplay:10.37,2013-02-28 20:28:00,
2013-02-28 15:33:00,33.9,29.3,29.94,NNW,329,6.0,6.0,83,0.00,OVC,,0.01,WeatherDisplay:10.37,2013-02-28 20:33:00,
2013-02-28 15:38:00,33.9,29.3,29.95,NNW,327,8.1,8.1,83,0.00,OVC,,0.01,WeatherDisplay:10.37,2013-02-28 20:38:00,
2013-02-28 15:43:00,34.0,29.4,29.95,WNW,298,5.0,5.0,83,0.00,OVC,,0.01,WeatherDisplay:10.37,2013-02-28 20:43:00,
2013-02-28 15:48:00,33.9,29.3,29.95,NNW,341,5.0,5.0,83,0.00,OVC,,0.01,WeatherDisplay:10.37,2013-02-28 20:48:00,
2013-02-28 15:53:00,33.9,29.3,29.95,NW,324,4.6,4.6,83,0.00,OVC,,0.01,WeatherDisplay:10.37,2013-02-28 20:53:00,
2013-02-28 15:58:00,33.9,29.3,29.95,West,259,4.0,4.0,83,0.00,OVC,,0.01,WeatherDisplay:10.37,2013-02-28 20:58:00,
2013-02-28 16:03:00,34.0,29.4,29.95,NW,309,6.0,6.0,83,0.00,OVC,,0.01,WeatherDisplay:10.37,2013-02-28 21:03:00,
2013-02-28 16:08:00,34.0,29.4,29.95,NW,316,6.0,6.0,83,0.00,OVC,,0.01,WeatherDisplay:10.37,2013-02-28 21:08:00,
2013-02-28 16:13:00,34.0,29.4,29.95,NNW,344,6.0,6.0,83,0.00,OVC,,0.01,WeatherDisplay:10.37,2013-02-28 21:13:00,
2013-02-28 16:18:00,34.0,29.4,29.95,West,279,8.1,8.1,83,0.00,OVC,,0.01,WeatherDisplay:10.37,2013-02-28 21:18:00,
2013-02-28 16:23:00,34.0,29.4,29.96,WNW,288,10.4,10.4,83,0.00,OVC,,0.01,WeatherDisplay:10.37,2013-02-28 21:23:00,
2013-02-28 16:28:00,34.1,29.5,29.96,WSW,253,11.5,11.5,83,0.00,OVC,,0.01,WeatherDisplay:10.37,2013-02-28 21:28:00,
2013-02-28 16:33:00,34.1,29.5,29.96,WNW,295,5.0,5.0,83,0.00,OVC,,0.01,WeatherDisplay:10.37,2013-02-28 21:33:00,
2013-02-28 16:38:00,34.1,29.5,29.96,West,276,4.0,4.0,83,0.00,OVC,,0.01,WeatherDisplay:10.37,2013-02-28 21:38:00,
2013-02-28 16:43:00,34.1,29.5,29.96,West,278,4.0,4.0,83,0.00,OVC,,0.01,WeatherDisplay:10.37,2013-02-28 21:43:00,
2013-02-28 16:48:00,34.1,29.5,29.96,West,264,9.0,9.0,83,0.00,OVC,,0.01,WeatherDisplay:10.37,2013-02-28 21:48:00,
2013-02-28 16:53:00,34.1,29.5,29.96,WSW,247,11.0,11.0,83,0.00,OVC,,0.01,WeatherDisplay:10.37,2013-02-28 21:53:00,
2013-02-28 16:58:00,34.1,29.5,29.97,NNW,338,5.8,5.8,83,0.00,OVC,,0.01,WeatherDisplay:10.37,2013-02-28 21:58:00,
2013-02-28 17:03:00,34.1,29.5,29.97,WSW,255,6.9,6.9,83,0.00,OVC,,0.01,WeatherDisplay:10.37,2013-02-28 22:03:00,
2013-02-28 17:08:00,34.1,29.5,29.97,West,260,6.0,6.0,83,0.00,OVC,,0.01,WeatherDisplay:10.37,2013-02-28 22:08:00,
2013-02-28 17:13:00,34.1,29.5,29.97,NNW,332,5.0,5.0,83,0.00,OVC,,0.01,WeatherDisplay:10.37,2013-02-28 22:13:00,
2013-02-28 17:18:00,34.2,29.6,29.97,West,260,6.0,6.0,83,0.00,OVC,,0.01,WeatherDisplay:10.37,2013-02-28 22:18:00,
2013-02-28 17:23:00,34.2,29.6,29.98,NW,309,4.6,4.6,83,0.00,OVC,,0.01,WeatherDisplay:10.37,2013-02-28 22:23:00,
2013-02-28 17:28:00,34.2,29.6,29.98,WNW,299,10.4,10.4,83,0.00,OVC,,0.01,WeatherDisplay:10.37,2013-02-28 22:28:00,
2013-02-28 17:33:00,34.2,29.6,29.98,North,351,7.0,7.0,83,0.00,OVC,,0.01,WeatherDisplay:10.37,2013-02-28 22:33:00,
2013-02-28 17:38:00,34.2,29.6,29.98,WSW,243,8.1,8.1,83,0.00,OVC,,0.01,WeatherDisplay:10.37,2013-02-28 22:38:00,
2013-02-28 17:43:00,34.1,29.5,29.98,West,264,11.5,11.5,83,0.00,OVC,,0.01,WeatherDisplay:10.37,2013-02-28 22:43:00,
2013-02-28 17:48:00,34.1,29.5,29.99,West,268,6.0,6.0,83,0.00,OVC,,0.01,WeatherDisplay:10.37,2013-02-28 22:48:00,
2013-02-28 17:53:00,34.1,29.5,29.99,West,264,11.5,11.5,83,0.00,OVC,,0.01,WeatherDisplay:10.37,2013-02-28 22:53:00,
2013-02-28 17:58:00,34.1,29.5,29.99,NW,319,3.5,3.5,83,0.00,OVC,,0.01,WeatherDisplay:10.37,2013-02-28 22:58:00,
2013-02-28 18:03:00,34.1,29.8,29.99,West,264,6.0,6.0,84,0.00,OVC,,0.01,WeatherDisplay:10.37,2013-02-28 23:03:00,
2013-02-28 18:08:00,34.0,29.7,30.00,WNW,293,4.0,4.0,84,0.00,OVC,,0.01,WeatherDisplay:10.37,2013-02-28 23:08:00,
2013-02-28 18:13:00,34.0,29.7,30.00,NW,321,6.0,6.0,84,0.00,OVC,,0.01,WeatherDisplay:10.37,2013-02-28 23:13:00,
2013-02-28 18:18:00,34.0,29.7,30.00,West,268,11.5,11.5,84,0.00,OVC,,0.01,WeatherDisplay:10.37,2013-02-28 23:18:00,
2013-02-28 18:23:00,34.0,29.7,30.00,WSW,255,10.4,10.4,84,0.00,OVC,,0.01,WeatherDisplay:10.37,2013-02-28 23:23:00,
2013-02-28 18:28:00,33.9,29.6,30.00,WSW,256,5.0,5.0,84,0.00,OVC,,0.01,WeatherDisplay:10.37,2013-02-28 23:28:00,
2013-02-28 18:33:00,33.9,29.6,30.00,WSW,252,3.5,3.5,84,0.00,OVC,,0.01,WeatherDisplay:10.37,2013-02-28 23:33:00,
2013-02-28 18:38:00,33.9,29.9,30.00,West,275,5.0,5.0,85,0.00,OVC,,0.01,WeatherDisplay:10.37,2013-02-28 23:38:00,
2013-02-28 18:43:00,33.9,29.9,30.00,WSW,246,6.9,6.9,85,0.00,OVC,,0.01,WeatherDisplay:10.37,2013-02-28 23:43:00,
2013-02-28 18:48:00,33.9,29.9,30.00,WNW,286,4.6,4.6,85,0.00,OVC,,0.01,WeatherDisplay:10.37,2013-02-28 23:48:00,
2013-02-28 18:53:00,33.9,29.9,30.00,West,262,4.6,4.6,85,0.00,OVC,,0.01,WeatherDisplay:10.37,2013-02-28 23:53:00,
2013-02-28 18:58:00,33.9,29.9,30.00,West,261,2.3,2.3,85,0.00,OVC,,0.01,WeatherDisplay:10.37,2013-02-28 23:58:00,
2013-02-28 19:03:00,33.8,29.8,30.01,West,271,3.5,3.5,85,0.00,OVC,,0.01,WeatherDisplay:10.37,2013-03-01 00:03:00,
2013-02-28 19:08:00,33.8,29.8,30.00,NW,305,5.0,5.0,85,0.00,OVC,,0.01,WeatherDisplay:10.37,2013-03-01 00:08:00,
2013-02-28 19:14:00,33.8,29.8,30.01,West,274,5.0,5.0,85,0.00,OVC,,0.01,WeatherDisplay:10.37,2013-03-01 00:14:00,
2013-02-28 19:19:00,33.8,29.8,30.00,West,259,3.5,3.5,85,0.00,OVC,,0.01,WeatherDisplay:10.37,2013-03-01 00:19:00,
2013-02-28 19:24:00,33.7,30.0,30.00,West,261,4.0,4.0,86,0.00,OVC,,0.01,WeatherDisplay:10.37,2013-03-01 00:24:00,
2013-02-28 19:29:00,33.7,30.0,30.01,WSW,247,7.0,7.0,86,0.00,OVC,,0.01,WeatherDisplay:10.37,2013-03-01 00:29:00,
2013-02-28 19:34:00,33.5,29.8,30.01,WSW,247,5.0,5.0,86,0.00,OVC,,0.01,WeatherDisplay:10.37,2013-03-01 00:34:00,
2013-02-28 19:39:00,33.5,29.8,30.01,WSW,247,2.3,2.3,86,0.00,OVC,,0.01,WeatherDisplay:10.37,2013-03-01 00:39:00,
2013-02-28 19:44:00,33.4,29.7,30.01,WSW,253,4.0,4.0,86,0.00,OVC,,0.01,WeatherDisplay:10.37,2013-03-01 00:44:00,
2013-02-28 19:49:00,33.3,29.6,30.01,WSW,251,4.0,4.0,86,0.00,OVC,,0.01,WeatherDisplay:10.37,2013-03-01 00:49:00,
2013-02-28 19:54:00,33.3,29.8,30.01,WSW,252,3.5,3.5,87,0.00,OVC,,0.01,WeatherDisplay:10.37,2013-03-01 00:54:00,
2013-02-28 19:59:00,33.3,29.8,30.01,WSW,252,3.0,3.0,87,0.00,OVC,,0.01,WeatherDisplay:10.37,2013-03-01 00:59:00,
2013-02-28 20:04:00,33.2,29.8,30.01,WSW,252,4.0,4.0,87,0.00,-SN,,0.01,WeatherDisplay:10.37,2013-03-01 01:04:00,
2013-02-28 20:09:00,33.2,29.8,30.01,WSW,252,5.0,5.0,87,0.00,-SN,,0.01,WeatherDisplay:10.37,2013-03-01 01:09:00,
2013-02-28 20:14:00,33.2,29.8,30.01,WSW,252,2.0,2.0,87,0.00,-SN,,0.01,WeatherDisplay:10.37,2013-03-01 01:14:00,
2013-02-28 20:19:00,33.1,29.7,30.01,WSW,252,5.0,5.0,87,0.00,-SN,,0.01,WeatherDisplay:10.37,2013-03-01 01:19:00,
2013-02-28 20:24:00,33.1,29.7,30.01,WSW,252,6.0,6.0,87,0.00,-SN,,0.01,WeatherDisplay:10.37,2013-03-01 01:24:00,
2013-02-28 20:29:00,33.2,29.8,30.01,WSW,252,2.3,2.3,87,0.00,-SN,,0.01,WeatherDisplay:10.37,2013-03-01 01:29:00,
2013-02-28 20:34:00,33.2,30.0,30.01,WSW,253,2.3,2.3,88,0.00,-SN,,0.01,WeatherDisplay:10.37,2013-03-01 01:34:00,
2013-02-28 20:39:00,33.2,30.0,30.01,WSW,252,4.6,4.6,88,0.00,-SN,,0.01,WeatherDisplay:10.37,2013-03-01 01:39:00,
2013-02-28 20:44:00,33.2,30.0,30.01,WSW,253,2.3,2.3,88,0.00,-SN,,0.01,WeatherDisplay:10.37,2013-03-01 01:44:00,
2013-02-28 20:49:00,33.2,30.0,30.01,WSW,256,4.0,4.0,88,0.00,-SN,,0.01,WeatherDisplay:10.37,2013-03-01 01:49:00,
2013-02-28 20:54:00,33.3,30.1,30.01,WSW,256,5.0,5.0,88,0.00,-SN,,0.01,WeatherDisplay:10.37,2013-03-01 01:54:00,
2013-02-28 20:59:00,33.3,30.1,30.01,WSW,256,3.5,3.5,88,0.00,-SN,,0.01,WeatherDisplay:10.37,2013-03-01 01:59:00,
2013-02-28 21:04:00,33.4,30.2,30.01,WSW,256,2.3,2.3,88,0.00,OVC,,0.01,WeatherDisplay:10.37,2013-03-01 02:04:00,
2013-02-28 21:09:00,33.4,30.2,30.01,WSW,256,2.3,2.3,88,0.00,OVC,,0.01,WeatherDisplay:10.37,2013-03-01 02:09:00,
2013-02-28 21:14:00,33.4,30.2,30.01,WSW,256,4.0,4.0,88,0.00,OVC,,0.01,WeatherDisplay:10.37,2013-03-01 02:14:00,
2013-02-28 21:19:00,33.5,30.3,30.01,WSW,257,3.5,3.5,88,0.00,OVC,,0.01,WeatherDisplay:10.37,2013-03-01 02:19:00,
2013-02-28 21:24:00,33.5,30.3,30.01,West,263,4.0,4.0,88,0.00,OVC,,0.01,WeatherDisplay:10.37,2013-03-01 02:24:00,
2013-02-28 21:29:00,33.5,30.3,30.01,West,264,3.5,3.5,88,0.00,OVC,,0.01,WeatherDisplay:10.37,2013-03-01 02:29:00,
2013-02-28 21:34:00,33.5,30.3,30.01,West,265,3.0,3.0,88,0.00,OVC,,0.01,WeatherDisplay:10.37,2013-03-01 02:34:00,
2013-02-28 21:39:00,33.6,30.4,30.01,West,265,1.1,1.1,88,0.00,OVC,,0.01,WeatherDisplay:10.37,2013-03-01 02:39:00,
2013-02-28 21:44:00,33.6,30.4,30.01,West,271,3.5,3.5,88,0.00,OVC,,0.01,WeatherDisplay:10.37,2013-03-01 02:44:00,
2013-02-28 21:49:00,33.6,30.4,30.01,West,272,3.0,3.0,88,0.00,OVC,,0.01,WeatherDisplay:10.37,2013-03-01 02:49:00,
2013-02-28 21:54:00,33.7,30.5,30.02,West,272,3.0,3.0,88,0.00,OVC,,0.01,WeatherDisplay:10.37,2013-03-01 02:54:00,
2013-02-28 21:59:00,33.7,30.5,30.02,West,271,5.0,5.0,88,0.00,OVC,,0.01,WeatherDisplay:10.37,2013-03-01 02:59:00,
2013-02-28 22:04:00,33.7,30.5,30.01,WSW,248,4.6,4.6,88,0.00,OVC,,0.01,WeatherDisplay:10.37,2013-03-01 03:04:00,
2013-02-28 22:09:00,33.7,30.5,30.02,West,267,4.0,4.0,88,0.00,OVC,,0.01,WeatherDisplay:10.37,2013-03-01 03:09:00,
2013-02-28 22:14:00,33.7,30.5,30.02,West,270,3.5,3.5,88,0.00,OVC,,0.01,WeatherDisplay:10.37,2013-03-01 03:14:00,
2013-02-28 22:19:00,33.7,30.5,30.02,West,265,3.5,3.5,88,0.00,OVC,,0.01,WeatherDisplay:10.37,2013-03-01 03:19:00,
2013-02-28 22:24:00,33.8,30.6,30.02,West,269,3.5,3.5,88,0.01,RA,,0.02,WeatherDisplay:10.37,2013-03-01 03:24:00,
2013-02-28 22:29:00,33.8,30.9,30.02,West,268,3.5,3.5,89,0.01,RA,,0.02,WeatherDisplay:10.37,2013-03-01 03:29:00,
2013-02-28 22:34:00,33.8,30.9,30.03,West,268,2.3,2.3,89,0.01,OVC,,0.02,WeatherDisplay:10.37,2013-03-01 03:34:00,
2013-02-28 22:39:00,33.8,30.9,30.03,West,265,4.0,4.0,89,0.01,OVC,,0.02,WeatherDisplay:10.37,2013-03-01 03:39:00,
2013-02-28 22:44:00,33.8,30.9,30.03,West,264,6.0,6.0,89,0.01,OVC,,0.02,WeatherDisplay:10.37,2013-03-01 03:44:00,
2013-02-28 22:49:00,33.8,30.9,30.03,West,264,2.3,2.3,89,0.01,OVC,,0.02,WeatherDisplay:10.37,2013-03-01 03:49:00,
2013-02-28 22:54:00,33.8,30.9,30.03,West,266,3.0,3.0,89,0.01,OVC,,0.02,WeatherDisplay:10.37,2013-03-01 03:54:00,
2013-02-28 22:59:00,33.8,30.9,30.03,West,266,3.0,3.0,89,0.01,OVC,,0.02,WeatherDisplay:10.37,2013-03-01 03:59:00,
2013-02-28 23:04:00,33.9,31.0,30.03,West,266,3.5,3.5,89,0.01,OVC,,0.02,WeatherDisplay:10.37,2013-03-01 04:04:00,
2013-02-28 23:09:00,33.9,31.0,30.02,West,266,4.0,4.0,89,0.01,OVC,,0.02,WeatherDisplay:10.37,2013-03-01 04:09:00,
2013-02-28 23:14:00,33.9,31.0,30.03,West,266,3.5,3.5,89,0.01,OVC,,0.02,WeatherDisplay:10.37,2013-03-01 04:14:00,
2013-02-28 23:19:00,33.9,31.0,30.03,West,266,2.3,2.3,89,0.01,OVC,,0.02,WeatherDisplay:10.37,2013-03-01 04:19:00,
2013-02-28 23:24:00,33.9,31.0,30.02,West,266,4.0,4.0,89,0.00,OVC,,0.02,WeatherDisplay:10.37,2013-03-01 04:24:00,
2013-02-28 23:29:00,33.9,31.0,30.02,West,266,2.3,2.3,89,0.00,OVC,,0.02,WeatherDisplay:10.37,2013-03-01 04:29:00,
2013-02-28 23:34:00,33.9,31.0,30.02,West,271,4.0,4.0,89,0.00,OVC,,0.02,WeatherDisplay:10.37,2013-03-01 04:34:00,
2013-02-28 23:39:00,33.9,31.0,30.02,West,272,4.0,4.0,89,0.00,OVC,,0.02,WeatherDisplay:10.37,2013-03-01 04:39:00,
2013-02-28 23:44:00,34.0,31.1,30.01,West,271,2.3,2.3,89,0.00,OVC,,0.02,WeatherDisplay:10.37,2013-03-01 04:44:00,
2013-02-28 23:49:00,34.0,31.1,30.01,West,272,2.0,2.0,89,0.00,OVC,,0.02,WeatherDisplay:10.37,2013-03-01 04:49:00,
2013-02-28 23:54:00,34.0,31.1,30.01,West,272,3.0,3.0,89,0.00,OVC,,0.02,WeatherDisplay:10.37,2013-03-01 04:54:00,
2013-02-28 23:59:00,34.0,31.1,30.01,West,272,3.5,3.5,89,0.00,OVC,,0.02,WeatherDisplay:10.37,2013-03-01 04:59:00,